Calgary / Springba, Alberta

5:42 AM MST on January 18, 2017 (GMT -0700)
Springbank

Weather History for CYBW - May, 2013

Change the Weather History Date:

Wednesday, May 22, 2013

  Actual Average Record
Temperature  
Mean Temperature 40 °F -  
Max Temperature 48 °F 60 °F 77 °F (2001)
Min Temperature 33 °F 38 °F 28 °F (2002)
Degree Days  
Heating Degree Days 24    
Moisture  
Dew Point 38 °F    
Average Humidity 77    
Maximum Humidity 100    
Minimum Humidity 49    
Precipitation  
Precipitation 0.08 in - - ()
Sea Level Pressure  
Sea Level Pressure 30.09 in    
Wind  
Wind Speed 10 mph ()    
Max Wind Speed 18 mph    
Max Gust Speed 26 mph    
Visibility 12.1 miles    
Events Rain    
Averages and records for this station are not official NWS values.
T = Trace of Precipitation, MM = Missing Value Source: Averaged Metar Reports

Daily Weather History Graph

Daily Weather History Graph

Search for Another Location

Airport or City:

Trip Planner

Search our weather history database for the weather conditions in past years. The results will help you decide how hot, cold, wet, or windy it might be!

Date:

Astronomy

May. 22, 2013 Rise Set
Actual Time 5:37 AM MDT 9:31 PM MDT
Civil Twilight 4:54 AM MDT 10:14 PM MDT
Nautical Twilight 3:55 AM MDT 11:14 PM MDT
Astronomical Twilight 2:11 AM MDT 1:05 AM MDT
Moon 6:44 PM MDT (5/22) 4:03 AM MDT (5/22)
Length of Visible Light 17h 19m
Length of Day
15h 54m
Waxing Gibbous, 92% of the Moon is Illuminated
May 22
Waxing Gibbous
May 24
Full
May 31
Last Quarter
Jun 8
New
Jun 16
First Quarter

Hourly Weather History & Observations

Time (MDT) Temp. Windchill Dew Point Humidity Pressure Visibility Wind Dir Wind Speed Gust Speed Precip Events Conditions
5:00 AM 39.2 °F 35.0 °F 23.0 °F 52% 30.01 in 20.0 mi ESE 5.8 mph - N/A   Scattered Clouds
6:00 AM 37 °F - 25 °F 49% 30.02 in 28 mi ESE 9.2 mph - -   Scattered Clouds
6:00 AM 37.4 °F 30.3 °F 24.8 °F 60% 30.02 in 30.0 mi ESE 10.4 mph - N/A   Mostly Cloudy
7:00 AM 42.8 °F 38.0 °F 26.6 °F 53% 30.02 in 30.0 mi ESE 8.1 mph - N/A   Mostly Cloudy
8:00 AM 44.6 °F 41.4 °F 28.4 °F 53% 30.04 in 20.0 mi ESE 5.8 mph - N/A   Overcast
9:00 AM 46.4 °F 42.4 °F 30.2 °F 53% 30.06 in 20.0 mi East 8.1 mph - N/A   Overcast
9:12 AM 44.6 °F 38.8 °F 33.8 °F 66% 30.06 in 15.0 mi SE 11.5 mph 19.6 mph N/A Rain Light Rain
9:29 AM 42.8 °F 36.2 °F 37.4 °F 81% 30.07 in 10.0 mi ESE 12.7 mph - N/A Rain Light Rain
10:00 AM 42.8 °F 37.5 °F 39.2 °F 87% 30.09 in 8.0 mi East 9.2 mph - N/A Rain Light Rain
10:44 AM 44.6 °F 38.4 °F 41.0 °F 87% 30.09 in 7.0 mi ESE 12.7 mph - N/A Rain Light Rain
11:00 AM 44.6 °F 37.8 °F 41.0 °F 87% 30.10 in 4.0 mi ESE 15.0 mph - N/A Rain Light Rain
12:00 PM 43 °F - 42 °F 96% 30.12 in 2 mi ESE 18.4 mph - - Rain Light Rain
12:00 PM 42.8 °F 34.5 °F 42.8 °F 100% 30.12 in 2.5 mi ESE 18.4 mph 25.3 mph N/A Rain Light Rain
12:14 PM 44.6 °F 36.9 °F 42.8 °F 93% 30.12 in 4.0 mi ESE 18.4 mph 26.5 mph N/A Rain Light Rain
1:00 PM 43.5 °F 36.1 °F 42.4 °F 96% 30.14 in 3.0 mi East 16.1 mph 24.2 mph N/A Rain Light Rain
2:00 PM 44.6 °F 38.8 °F 42.8 °F 93% 30.16 in 4.0 mi East 11.5 mph 20.7 mph N/A Rain Light Rain
2:47 PM 46.4 °F 39.5 °F 42.8 °F 87% 30.16 in 10.0 mi East 17.3 mph - N/A   Overcast
3:00 PM 46.4 °F 39.5 °F 41.0 °F 81% 30.16 in 15.0 mi East 17.3 mph - N/A   Overcast
4:00 PM 46.4 °F 41.5 °F 42.8 °F 87% 30.17 in 15.0 mi ENE 10.4 mph - N/A Rain Light Rain
4:29 PM 48.2 °F - 41.0 °F 76% 30.14 in 15.0 mi NE 10.4 mph - N/A   Overcast
5:00 PM 48.2 °F - 41.0 °F 76% 30.14 in 15.0 mi NNE 8.1 mph - N/A   Overcast
6:00 PM 48 °F - 41 °F 70% 30.12 in 15 mi North 8.1 mph - -   Partly Cloudy
6:00 PM 48.2 °F - 41.0 °F 76% 30.11 in 15.0 mi North 8.1 mph - N/A   Overcast
7:00 PM 48.2 °F - 41.0 °F 76% 30.09 in 20.0 mi West 6.9 mph - N/A   Overcast
8:00 PM 46.4 °F 40.7 °F 41.0 °F 81% 30.09 in 20.0 mi NW 12.7 mph 20.7 mph N/A   Overcast
9:00 PM 46.4 °F 41.5 °F 41.0 °F 81% 30.10 in 15.0 mi West 10.4 mph 18.4 mph N/A   Overcast
10:00 PM 46.4 °F 41.5 °F 39.2 °F 76% 30.04 in 15.0 mi North 10.4 mph - N/A Rain Light Rain